Theta_e
309 309 310 309 308 305 304 303 298 303 305 295 292 290 291 293 292 295 292 292 290 287 288 288 286 285 288 292 291 286 290 286 283 283 290 296 294 289 289 287 288 288 291 293
309 309 309 309 308 305 303 298 295 304 303 289 288 292 291 292 291 291 290 289 291 291 287 285 287 288 292 292 291 288 290 283 279 282 290 290 286 287 288 287 287 286 286 293
309 309 309 309 307 305 302 296 291 296 297 293 292 290 289 289 294 292 292 291 292 289 288 289 286 287 290 292 291 294 292 286 281 278 281 285 283 286 288 287 281 283 284 287
310 309 309 309 307 304 303 295 290 290 288 290 292 292 290 288 288 292 293 290 290 288 286 286 286 288 289 290 292 291 290 283 284 286 287 287 286 285 286 285 286 282 284 285
310 309 309 309 307 304 297 293 292 292 290 292 291 291 289 288 289 290 288 287 289 289 287 287 285 287 288 286 290 289 288 284 285 284 287 287 284 287 287 287 287 287 287 287
309 309 309 309 307 304 298 296 295 296 291 291 290 289 289 289 291 291 292 290 289 288 289 292 293 293 292 291 289 287 287 286 284 280 286 285 281 286 287 288 289 288 283 290
309 309 309 309 308 302 300 296 298 294 288 291 290 292 292 291 291 289 292 293 290 293 296 293 292 291 291 290 290 291 287 287 285 281 284 276 286 292 291 288 289 291 291 292
309 309 309 309 309 305 300 298 299 296 290 293 292 292 292 293 293 291 291 293 295 296 292 288 284 285 286 287 289 289 290 287 283 280 280 284 286 290 287 285 285 292 291 293
309 309 309 309 309 307 303 300 298 299 294 291 293 293 292 291 290 291 292 296 297 293 290 287 280 279 281 282 284 290 290 290 286 283 278 276 284 289 293 292 282 295 293 292
308 309 309 309 309 307 304 301 300 302 295 296 297 293 292 295 292 291 291 292 292 293 288 284 282 281 284 281 281 282 284 286 282 282 280 284 289 289 291 279 282 288 290 290
307 308 308 309 309 308 304 301 302 302 297 297 299 299 296 295 294 290 292 290 291 289 285 285 283 284 284 283 284 283 283 282 282 283 279 277 290 288 281 284 287 287 291 293
307 308 308 308 309 308 303 301 302 301 300 298 300 300 300 300 298 296 294 292 290 291 287 286 285 284 286 283 281 289 283 286 283 284 284 291 290 286 290 290 286 286 286 289
307 307 308 308 308 307 304 302 300 302 300 299 299 297 302 302 300 301 295 296 296 294 297 290 287 283 286 282 283 284 288 291 285 285 288 287 289 292 293 294 291 292 293 292
307 307 308 308 307 305 304 301 300 299 297 295 296 302 299 302 302 300 300 298 298 297 296 291 286 286 288 286 286 285 289 289 286 286 287 288 291 292 295 295 296 295 295 293
307 308 307 307 306 303 303 302 301 300 297 294 295 298 300 301 300 298 298 297 295 292 290 290 288 290 289 291 289 287 291 287 284 282 288 286 288 295 296 295 294 294 293 293
307 308 307 306 305 302 302 298 302 303 300 299 293 297 299 301 301 299 297 296 295 295 294 292 294 294 292 287 285 292 295 294 293 290 295 295 296 296 297 296 296 296 294 294
307 307 306 305 303 302 300 297 301 303 302 298 292 294 297 298 297 299 299 297 295 296 295 294 294 293 291 286 285 293 296 295 295 296 296 293 295 294 297 297 297 296 295 295
307 306 306 305 304 304 302 305 304 303 300 298 291 291 294 297 294 294 297 297 298 295 294 295 291 290 288 285 291 295 297 296 295 296 297 296 298 299 298 298 298 295 293 294
306 305 305 306 303 300 301 307 306 304 301 293 293 288 288 295 294 294 296 297 293 295 292 293 292 287 284 289 292 295 297 295 295 297 296 296 295 296 297 297 297 295 294 293
304 305 300 298 300 304 306 304 301 299 298 297 292 292 291 293 294 294 294 295 291 288 293 295 288 287 293 294 296 300 301 299 297 294 294 294 294 295 296 296 297 297 295 295
302 298 298 301 303 303 299 295 294 294 292 294 293 292 291 295 291 290 294 291 293 287 291 290 288 286 290 296 297 300 303 302 297 298 297 297 296 296 297 296 297 297 296 295
300 301 301 302 299 295 291 289 292 291 288 294 293 293 294 295 296 293 295 292 293 285 295 289 285 292 295 296 296 298 301 304 302 300 299 299 299 298 299 299 297 297 298 297
303 300 297 296 294 287 286 282 287 288 293 294 295 292 294 296 296 294 294 289 288 296 287 284 289 295 297 297 299 301 303 304 304 303 300 301 301 301 300 300 299 299 298 298
299 295 288 290 289 290 291 290 291 295 294 293 293 294 293 296 294 292 290 292 292 286 282 284 293 296 297 298 300 302 301 302 304 303 303 302 302 302 301 301 301 299 298 299
296 296 288 291 295 295 295 294 294 296 295 296 295 294 296 293 291 291 290 287 282 284 285 291 296 298 297 297 300 303 303 303 302 303 304 304 303 301 301 303 302 300 300 299
298 296 292 295 294 294 295 296 295 298 297 298 297 292 290 289 290 287 285 284 282 288 294 297 298 298 297 297 299 301 304 305 305 305 304 303 304 304 302 300 301 300 300 299
296 295 297 296 296 296 296 295 298 299 298 294 293 288 286 291 288 286 288 287 293 297 298 299 298 296 296 297 300 301 301 303 304 305 305 305 305 305 304 303 304 304 300 300
Wind_Speed
29 30 30 30 28 23 5 3 3 9 8 8 4 4 4 4 8 9 7 6 7 5 7 5 5 4 4 7 6 4 6 2 5 11 13 8 9 7 8 5 6 6 6 9
29 30 31 31 27 17 2 5 3 5 5 6 7 12 14 10 7 9 5 6 7 6 4 4 6 3 1 8 4 4 4 2 6 3 6 5 6 12 9 11 11 14 9 6
30 31 32 32 29 15 4 4 3 7 8 5 12 10 6 7 7 11 8 5 6 3 5 5 5 4 2 7 4 9 2 1 4 5 10 12 19 20 18 11 8 13 24 28
30 31 34 35 30 16 5 5 4 2 4 10 13 8 5 8 4 5 10 4 6 3 3 3 3 4 6 5 6 4 3 3 3 13 16 13 16 19 19 19 17 18 27 30
29 30 32 34 35 11 8 5 5 5 4 4 13 8 5 6 5 5 4 3 5 2 3 3 2 3 2 3 5 3 1 3 7 11 8 9 17 15 13 15 17 20 25 28
27 29 30 32 33 14 6 3 2 4 7 5 6 5 3 2 5 4 5 2 1 2 1 3 6 5 5 5 4 2 2 6 10 6 13 16 4 5 6 10 17 21 23 27
26 27 28 29 28 15 4 3 1 6 8 7 8 10 9 7 4 5 6 4 1 4 8 2 6 6 3 3 3 4 4 7 2 7 11 5 5 1 4 19 25 22 24 22
24 24 25 25 24 18 7 3 3 5 8 10 12 10 6 7 6 7 7 4 5 8 0 3 5 3 4 4 4 1 4 4 5 5 9 13 2 5 15 24 42 26 18 11
23 23 23 23 24 18 4 6 3 4 6 7 3 6 5 4 3 2 3 2 5 3 2 2 3 4 2 1 3 3 5 2 3 6 6 5 9 21 26 24 16 6 16 21
22 23 22 22 22 18 5 5 6 7 11 5 6 7 5 4 3 2 1 4 5 6 3 4 3 3 2 3 6 8 5 5 6 7 4 6 13 25 21 8 12 29 29 24
21 20 20 20 21 20 5 3 8 5 7 6 8 7 11 5 4 3 4 3 5 5 5 3 3 2 5 2 4 5 5 6 4 4 4 5 19 16 11 13 17 24 13 8
19 19 20 21 20 19 4 5 4 4 6 6 5 9 8 8 5 1 4 5 3 3 3 3 2 2 3 5 4 4 3 5 6 4 5 15 15 12 12 9 11 14 15 14
17 18 17 17 18 17 8 3 4 3 7 7 4 6 8 12 8 3 2 2 2 4 3 3 3 5 1 3 6 5 5 5 3 8 7 13 10 12 13 13 13 14 15 16
15 14 13 13 14 14 9 5 4 2 3 4 6 3 5 8 10 11 7 7 6 4 3 3 3 3 1 2 2 2 5 7 8 4 4 10 12 13 15 13 13 14 15 16
15 13 10 8 8 7 8 5 4 3 2 3 4 2 4 6 9 11 10 9 6 3 3 3 3 1 1 2 1 2 4 4 4 4 8 2 9 13 14 14 16 15 14 15
16 11 6 6 5 1 0 2 3 5 3 3 3 1 3 3 4 9 9 5 4 2 2 3 2 2 2 2 2 6 9 4 5 3 8 4 8 9 11 11 11 12 12 13
15 7 4 5 5 2 4 4 3 6 2 2 3 2 4 5 2 2 3 3 3 2 2 2 2 2 2 1 3 10 7 0 1 4 8 6 9 6 8 9 9 10 11 11
10 6 5 6 8 8 3 5 6 2 3 3 3 2 1 7 3 2 2 2 1 4 2 1 2 1 1 2 10 10 8 2 4 7 5 4 5 10 10 9 8 10 10 11
3 3 2 1 4 3 3 9 5 3 4 4 3 3 2 5 3 1 1 1 3 0 3 3 2 3 4 5 10 10 7 4 3 5 5 6 8 8 9 9 9 9 10 11
1 1 2 3 2 8 7 1 2 5 5 5 3 0 2 3 3 3 0 2 2 2 4 1 3 1 7 10 11 8 8 3 2 3 7 8 9 7 6 8 7 6 7 8
3 3 2 2 7 1 3 4 5 4 4 3 3 2 3 2 3 3 2 1 1 3 3 2 4 6 12 14 9 9 8 2 4 4 1 4 3 3 5 6 6 5 6 7
2 2 0 1 4 3 5 4 3 5 3 3 3 3 2 2 2 2 2 2 1 4 3 3 4 4 14 12 13 9 9 7 4 5 4 4 4 2 4 5 5 5 5 5
2 1 3 4 4 8 5 5 3 3 4 3 3 3 3 1 1 1 2 4 3 0 4 1 3 10 11 13 13 9 4 8 9 5 3 5 5 4 5 6 5 5 5 5
3 4 6 4 4 4 1 3 2 1 3 3 2 2 2 2 2 2 4 3 2 3 3 2 5 12 14 11 9 7 6 10 15 11 6 6 6 5 4 4 3 4 4 3
4 3 4 3 1 0 0 1 2 2 1 2 2 1 1 3 3 3 1 3 4 2 1 2 6 11 10 10 10 9 6 3 3 5 10 7 5 4 3 1 2 3 4 4
3 4 3 1 1 1 1 2 2 0 1 1 1 1 1 4 3 4 3 3 2 2 2 3 7 7 7 9 10 9 8 8 5 4 2 3 8 6 4 3 3 4 5 5
3 2 1 1 0 1 1 1 2 1 2 1 0 2 3 1 1 2 0 2 1 1 3 3 4 6 7 8 8 9 8 8 8 7 7 6 5 4 5 7 7 6 7 5
Wind_Direction
351 350 352 354 353 343 52 67 57 355 346 56 40 63 88 83 19 38 68 67 63 60 36 65 84 80 66 30 350 24 20 58 307 298 322 56 67 43 32 345 324 293 275 254
354 353 356 358 359 3 74 77 6 339 349 105 87 95 84 62 45 32 62 50 51 52 56 107 100 40 61 17 21 25 357 92 307 324 170 91 6 338 325 313 273 260 280 250
356 357 357 2 2 2 80 87 59 22 34 34 105 110 62 106 48 49 54 56 53 88 50 40 133 68 67 2 28 76 322 124 1 313 279 282 291 296 296 282 269 288 258 293
0 2 1 1 5 360 86 42 74 339 52 54 81 90 78 90 88 65 31 76 46 45 72 86 69 48 357 42 36 35 22 27 321 290 285 279 271 279 283 282 276 267 293 295
5 6 6 4 1 7 75 104 121 61 84 60 70 35 38 84 84 26 40 56 354 29 87 40 58 26 11 12 1 51 23 340 313 300 305 300 297 290 274 279 293 286 289 288
10 9 10 10 9 13 65 26 67 94 32 60 76 37 75 73 116 76 50 333 115 125 57 331 294 274 264 276 304 346 306 344 330 303 337 309 217 9 10 336 323 304 290 295
13 13 12 14 16 33 77 32 68 85 74 75 76 99 80 69 48 121 26 60 89 46 327 165 120 112 128 166 191 236 308 334 311 300 329 319 79 218 307 327 303 303 285 284
14 15 14 14 18 25 63 22 39 90 99 93 79 72 79 59 72 82 63 40 354 330 340 130 136 117 166 58 12 269 223 321 315 292 319 289 40 29 344 328 304 306 281 291
16 14 14 14 15 20 68 44 321 88 113 45 19 65 43 57 68 106 44 38 336 357 58 74 70 63 1 3 351 69 356 235 254 323 321 312 26 346 336 315 285 27 329 318
16 16 14 14 14 20 54 50 357 83 90 45 29 48 33 22 68 65 10 358 6 356 56 69 59 92 312 1 0 354 0 340 331 331 295 290 3 343 322 314 325 309 300 294
13 16 14 13 15 18 35 50 9 68 90 62 42 52 53 64 35 22 32 209 33 34 66 55 54 39 54 330 18 355 338 327 355 306 284 321 10 333 346 315 302 321 324 358
7 13 17 14 11 16 27 54 16 343 70 95 64 70 41 36 31 115 33 83 72 64 108 85 122 94 42 340 67 5 19 3 312 290 327 348 332 318 316 317 318 352 13 30
6 11 15 14 10 17 46 81 359 66 98 92 65 24 12 27 16 335 109 88 77 80 32 114 107 80 11 22 59 311 5 22 299 315 40 340 322 344 21 18 18 17 27 32
4 6 13 16 16 18 39 59 353 47 79 86 63 9 29 356 39 47 44 102 81 87 67 80 83 78 31 14 344 355 9 300 321 277 4 325 346 345 346 7 18 22 33 44
1 2 10 18 29 62 67 73 37 31 341 111 113 157 54 38 55 64 76 85 81 63 73 68 69 84 328 36 252 347 319 6 338 356 310 266 288 335 4 25 35 40 41 37
355 357 4 10 21 120 333 106 63 24 355 111 107 32 36 51 64 68 68 71 78 90 68 60 79 119 1 37 40 345 357 58 28 338 343 349 356 10 14 38 42 42 41 36
349 10 51 26 34 71 51 53 337 351 300 82 117 94 45 359 40 73 76 49 63 33 79 57 47 44 55 39 10 350 5 80 308 344 341 1 12 350 23 42 62 57 54 57
1 62 87 73 83 124 68 21 5 319 91 51 74 48 88 12 25 63 3 73 81 33 60 20 34 68 33 48 351 351 359 300 12 4 18 325 358 17 17 31 39 57 51 48
44 71 66 131 33 44 0 322 337 15 32 86 63 19 357 355 32 300 164 355 81 15 50 46 7 347 37 316 330 335 343 308 323 342 344 22 25 20 26 23 30 43 45 45
351 40 40 51 14 312 296 47 27 29 20 33 55 129 349 327 352 29 46 30 85 79 48 124 30 100 348 341 330 310 314 322 281 356 9 2 2 19 26 27 28 51 54 54
34 38 63 332 311 283 34 52 32 351 55 30 1 356 325 32 4 4 30 96 357 71 25 34 9 4 345 331 338 337 339 355 259 250 279 269 255 335 38 40 42 62 57 51
58 69 127 267 24 43 59 37 21 31 24 351 337 347 327 329 312 298 49 66 53 63 347 50 8 353 341 334 318 319 303 324 325 289 319 342 351 71 101 77 83 79 76 64
165 99 58 17 357 46 44 18 20 0 345 355 347 333 339 280 238 246 336 63 57 76 47 68 271 334 342 341 337 8 90 36 25 16 7 14 30 70 80 84 94 104 97 79
53 41 34 42 38 63 113 164 208 251 243 319 308 296 334 347 332 354 67 59 64 67 48 339 320 340 333 343 350 14 32 13 20 16 25 44 48 65 102 96 109 121 119 108
64 50 55 62 47 216 203 202 288 241 239 301 308 262 287 11 50 26 86 77 75 84 180 267 316 331 334 345 352 351 357 59 73 13 2 32 58 62 106 105 143 163 168 186
66 66 104 124 199 133 206 219 258 132 253 239 242 332 42 45 17 47 31 90 129 123 226 288 319 331 345 347 348 348 349 353 348 23 192 290 28 8 7 285 257 229 242 239
70 84 60 334 319 300 324 277 325 6 272 9 73 54 46 324 102 90 33 141 109 305 310 317 319 319 335 338 350 5 4 6 4 352 358 9 353 323 321 336 322 255 223 225